#timestamp,LO_Frequency,Hit,StdDev 
1512752415.7,286046998.5,N
1512752435.6,286046994.4,N
1512752455.4,286046992.2,N
1512752475.3,286046996.5,N
1512752495.1,286046999.4,N
1512752496.0,286046999.4,N
1512752515.8,286046998.3,N
1512752535.7,286047002.5,N
1512752555.5,286047000.2,N
1512752575.3,286047002.6,N
1512752595.2,286047001.8,N
1512752615.0,286046997.2,N
1512752615.9,286046997.2,N
1512752635.8,286047000.6,N
1512752655.6,286047000.8,N
1512752675.4,286047006.5,N
1512752695.3,286047007.0,N
1512752715.1,286047003.2,N
1512752735.9,286047005.8,N
1512752755.7,286047004.6,N
1512752775.5,286047003.5,N
1512752795.4,286047002.6,N
1512752815.2,286047001.6,N
1512752835.0,286047003.7,N
1512752836.0,286047003.7,N
1512752855.8,286047002.5,N
1512752875.6,286047001.5,N
1512752895.5,286047005.8,N
1512752915.3,286047007.3,N
1512752935.1,286047007.9,N
1512752955.9,286047007.2,N
1512752975.7,286047004.0,N
1512752995.6,286047007.2,N
1512753015.4,286047005.8,N
1512753035.2,286047006.0,N
1512753055.1,286046998.4,N
1512753056.0,286046998.4,N
1512753075.8,286046997.4,N
1512753095.7,286047000.1,N
1512753115.5,286047005.4,N
1512753135.3,286047003.3,N
1512753155.2,286047007.6,N
1512753175.0,286047006.0,N
1512753175.9,286047006.0,N
1512753195.7,286047002.0,N
1512753215.6,286047001.1,N
1512753235.4,286047005.7,N
1512753255.3,286047008.4,N
1512753275.1,286047001.7,N
1512753306.0,286047001.6,E
1512753315.1,286047002.4,N
1512753316.0,286047002.4,P
1512753335.8,286046999.3,P
1512753355.6,286046998.5,N
1512753375.5,286047000.9,N
1512753395.3,286047003.8,N
1512753415.1,286047002.6,N
1512753435.9,286046998.6,N
1512753455.7,286047000.8,N
1512753475.6,286046997.8,N
1512753495.4,286046995.9,N
1512753515.2,286047011.9,Y
1512753535.1,286047000.3,P
1512753536.0,286047000.3,P
1512753555.8,286046996.8,P
1512753575.7,286046993.5,Y
1512753595.5,286046996.5,P
1512753615.3,286047001.1,N
1512753635.2,286047002.0,N
1512753655.0,286047004.1,N
1512753655.9,286047004.1,N
1512753675.8,286046998.7,N
1512753695.6,286046999.5,N
1512753715.4,286046998.9,N
1512753735.3,286046998.3,N
1512753755.1,286047000.1,N
1512753775.9,286047000.7,N
1512753795.7,286047004.0,N
1512753815.5,286047000.5,N
1512753835.4,286047001.7,N
1512753855.2,286047001.1,N
1512753875.0,286047002.4,N
1512753875.9,286047002.4,N
1512753895.8,286047000.2,N
1512753915.6,286046999.8,N
1512753935.5,286046998.4,N
1512753955.3,286047001.7,N
1512753975.1,286047007.5,Y
1512753995.9,286047012.3,P
1512754015.7,286047011.5,N
1512754035.6,286047005.0,N
1512754055.4,286047006.8,N
1512754075.2,286047006.6,N
1512754095.1,286047008.0,N
1512754096.0,286047008.0,N
1512754115.8,286047007.7,N
1512754135.7,286047008.3,N
1512754155.5,286047008.4,N
1512754175.3,286047006.5,N
1512754195.2,286047006.4,N
1512754215.0,286047006.8,N
1512754215.9,286047006.8,N
1512754235.8,286047009.2,Y
1512754255.6,286046996.8,P
1512754275.4,286047001.2,N
1512754295.3,286047000.0,N
1512754315.1,286047002.3,N
1512754335.8,286047000.3,N
1512754355.7,286047000.6,N
1512754375.5,286046995.7,N
1512754395.4,286046997.4,N
1512754415.2,286046995.7,N
1512754435.0,286046999.4,N
1512754435.9,286046999.4,N
1512754455.8,286046998.6,N
1512754475.6,286046996.7,N
1512754495.5,286046999.4,N
1512754515.3,286046995.4,N
1512754535.1,286046998.9,N
1512754555.9,286047000.0,N
1512754575.7,286047000.8,N
1512754595.5,286047000.1,N
1512754615.4,286047003.6,N
1512754635.2,286047005.5,N
1512754655.1,286046998.2,N
1512754656.0,286046998.2,N
1512754675.8,286047002.5,N
1512754695.6,286047002.6,N
1512754715.5,286047001.5,N
1512754735.3,286047000.2,N
1512754755.2,286047002.7,N
1512754775.9,286047002.0,N
1512754795.7,286047000.8,N
1512754815.6,286046997.3,N
1512754835.4,286047000.7,N
1512754855.2,286046999.5,N
1512754875.1,286046994.1,N
1512754876.0,286046994.1,N
1512754895.8,286046994.6,N
1512754915.7,286046988.6,Y
1512754935.5,286046990.1,P
1512754955.3,286046993.3,N
1512754975.2,286046999.1,N
1512754995.0,286046995.4,N
1512754995.9,286046995.4,N
1512755015.8,286046999.6,N
1512755035.6,286046996.6,N
1512755055.4,286046995.2,N
1512755075.3,286046997.9,N
1512755095.1,286046991.7,N
1512755115.9,286046991.6,N
1512755135.7,286046984.0,Y
1512755155.5,286046972.4,P
1512755175.4,286046968.8,N
1512755195.2,286046968.1,N
1512755215.1,286046967.9,N
1512755216.0,286046967.9,Y
1512755235.8,286046997.9,P
1512755255.6,286046992.8,N
1512755275.5,286046991.1,N
1512755295.3,286046988.9,N
1512755315.1,286046989.7,N
1512755335.9,286046988.3,N
1512755355.7,286046987.4,N
1512755375.6,286046981.2,Y
1512755395.4,286046990.1,P
1512755415.2,286046992.3,P
1512755435.1,286046993.0,P
1512755436.0,286046993.0,Y
1512755455.8,286046996.8,P
1512755475.7,286046999.1,N
1512755495.5,286047002.0,N
1512755515.3,286046997.7,N
1512755535.2,286046990.2,N
1512755555.0,286046994.2,N
1512755555.9,286046994.2,N
1512755575.8,286046993.6,N
1512755595.6,286046993.7,N
1512755615.4,286046994.7,N
1512755635.3,286046992.3,N
1512755655.1,286046992.8,N
1512755675.8,286046990.4,Y
1512755695.7,286047000.9,P
1512755715.5,286046996.9,N
1512755735.4,286046997.9,N
1512755755.2,286046993.7,N
1512755775.0,286046995.8,N
1512755775.9,286046995.8,N
1512755795.8,286046997.7,N
1512755815.6,286046996.6,N
1512755835.5,286046999.0,N
1512755855.3,286046990.6,Y
1512755875.1,286046996.2,P
1512755895.9,286046996.6,P
1512755915.7,286046998.6,P
1512755935.6,286046995.8,Y
1512755955.4,286046999.2,P
1512755975.2,286046995.5,P
1512755995.1,286046990.1,P
1512755996.0,286046990.1,N
